Total_Precipitation_Accumulation
1.96 2.58 3.12 2.19 1.91 0.98 0.79 0.83 0.84 0.76 0.78 0.65 0.90 1.22 0.93 1.09 1.25 1.70 1.76 1.76 1.51 1.76 1.60 1.69 1.83 2.27 2.27 2.41 2.36 2.61 2.30 2.11 1.67 1.40 1.09 1.10 1.10 1.41 1.59 1.46 1.32 1.21 1.25
3.13 3.53 2.18 1.35 1.60 1.44 1.33 1.10 0.72 0.48 0.54 0.44 0.68 0.69 0.83 1.08 1.10 1.06 1.02 0.96 0.82 0.70 0.78 1.30 1.23 1.70 2.24 2.52 2.59 2.38 2.34 2.35 2.05 1.79 2.05 2.28 2.08 2.06 1.73 1.59 1.38 1.05 1.04
3.82 2.72 2.07 2.25 1.53 0.76 0.57 0.73 0.65 0.51 0.42 0.51 0.76 0.58 0.77 0.96 1.17 1.54 1.73 1.39 1.20 1.03 1.17 1.24 1.49 1.82 1.89 1.96 2.05 1.81 1.99 2.08 1.96 1.96 1.93 1.67 1.32 1.30 1.26 1.15 1.13 1.08 0.91
2.31 2.34 1.95 1.72 1.46 1.05 0.88 1.00 1.12 0.98 0.67 0.68 0.62 0.64 0.79 1.12 1.06 1.32 1.81 1.90 1.64 1.40 1.31 1.37 1.37 1.62 1.80 1.96 1.99 1.69 1.63 1.76 2.03 1.80 1.73 1.31 1.19 1.27 1.31 1.11 0.93 0.79 0.69
1.74 2.48 2.49 2.62 2.49 2.20 2.02 1.98 1.59 1.44 1.17 0.94 0.84 0.68 0.95 1.06 0.94 1.13 0.95 1.59 2.17 1.72 1.70 1.52 1.31 1.36 1.22 1.28 1.41 1.26 1.46 1.59 1.77 1.68 1.46 1.33 1.20 1.32 1.36 1.36 1.13 0.83 0.64
2.52 2.48 2.67 3.15 3.62 3.62 3.74 3.91 3.52 2.89 2.44 2.34 1.71 1.42 1.72 1.24 1.08 1.32 1.63 1.26 1.22 1.20 1.22 1.34 1.17 0.96 0.97 1.00 0.91 0.94 1.21 1.51 1.37 1.42 1.22 1.29 1.10 1.27 1.34 1.26 1.36 1.20 0.81
1.97 3.64 3.82 3.82 3.66 3.63 3.54 3.56 3.53 3.57 3.66 3.03 2.47 2.25 1.86 1.77 1.76 1.33 2.33 2.58 1.97 1.24 1.15 1.32 1.12 0.94 1.05 0.95 1.02 0.97 0.95 1.03 1.12 1.50 1.16 0.93 0.97 0.78 1.17 1.12 1.63 2.19 2.06
1.68 2.40 2.79 3.22 3.50 3.47 3.20 2.76 2.56 2.69 2.81 2.88 2.31 2.31 2.20 1.92 1.99 2.04 2.29 1.95 2.27 2.18 1.54 1.38 1.11 1.02 1.25 1.39 1.47 1.06 0.74 0.52 0.65 0.80 0.62 0.51 0.60 0.91 1.62 1.91 1.90 2.38 2.80
2.58 3.21 3.01 2.79 2.98 2.84 2.90 2.96 2.63 2.58 2.32 2.50 2.74 3.16 2.85 2.61 3.01 3.00 2.99 2.57 2.02 1.99 2.36 2.31 1.93 1.45 1.67 1.85 1.76 1.33 0.92 0.44 0.55 0.49 0.44 0.70 0.87 1.37 2.47 1.67 1.59 2.76 2.64
3.92 4.22 4.28 4.22 4.05 4.30 4.05 3.53 3.09 2.85 3.36 3.80 3.75 4.37 4.64 3.84 3.85 4.33 4.09 3.33 2.63 2.17 1.88 2.08 2.93 2.58 2.32 1.99 1.52 2.01 1.39 0.65 0.99 0.97 0.74 0.67 0.98 1.32 2.11 1.88 2.65 3.46 3.35
4.60 4.34 4.54 4.46 5.56 6.15 5.15 4.07 4.08 4.30 4.61 5.04 5.42 5.25 4.67 4.20 3.93 3.97 4.07 3.64 3.46 3.42 3.08 2.90 3.35 3.59 3.15 2.35 2.25 2.15 1.86 2.50 2.24 1.61 1.18 1.05 1.24 1.52 1.58 1.50 2.00 2.19 2.06
3.86 3.93 4.28 3.99 4.59 5.80 6.54 6.04 6.14 6.66 7.56 8.38 9.03 7.34 5.47 4.49 4.03 4.14 4.05 3.77 3.67 3.22 2.85 2.65 2.64 2.96 3.42 2.97 2.10 1.89 2.27 2.51 2.90 2.38 1.88 1.54 1.60 1.85 1.93 2.15 2.34 2.32 1.93
4.08 4.03 4.13 4.57 3.98 3.42 4.31 4.60 4.37 4.55 4.64 4.40 3.72 3.81 4.21 4.77 5.27 6.25 5.88 5.27 4.94 4.43 3.64 2.88 2.98 3.47 3.03 3.13 3.32 2.95 2.73 2.56 2.58 2.66 2.39 2.37 2.15 1.97 2.29 2.46 2.56 2.72 2.62
2.26 2.75 2.97 3.20 2.59 2.61 2.82 3.01 3.02 2.80 2.45 2.33 2.76 3.07 3.14 3.23 3.33 3.32 3.32 3.25 3.24 3.20 2.90 2.28 2.07 1.93 2.15 2.19 2.07 2.46 2.38 2.17 2.42 2.65 3.10 2.47 2.61 2.04 1.83 2.14 2.23 2.25 2.58
0.86 0.96 1.22 1.46 1.48 1.64 2.31 2.78 2.63 2.68 3.26 3.24 3.18 2.86 2.22 2.07 2.59 2.90 2.95 3.32 3.37 3.29 2.54 1.69 1.72 1.72 1.94 1.96 1.85 1.75 1.62 1.90 1.88 2.23 2.03 1.96 2.00 2.50 1.92 2.11 2.03 1.93 1.78
1.09 1.08 0.96 0.97 1.23 1.62 2.38 2.81 2.65 2.26 2.56 2.83 2.93 3.07 2.98 3.01 3.12 3.11 2.88 3.19 3.41 3.87 2.97 2.33 2.13 2.10 2.08 1.81 1.65 1.87 1.77 1.86 2.07 2.19 2.64 2.46 2.07 2.16 2.85 2.50 2.69 2.43 2.55
1.69 1.51 1.30 1.20 1.22 1.22 1.85 2.00 1.69 1.60 1.58 1.60 1.41 1.42 1.80 1.92 1.81 1.74 1.57 1.66 1.68 2.26 3.39 3.43 3.59 3.16 3.08 2.56 2.28 2.07 2.00 2.12 2.36 2.34 2.25 2.31 2.96 3.29 4.41 3.81 3.53 3.42 3.04
1.71 1.85 1.53 1.55 1.76 1.33 1.40 1.45 1.18 0.88 0.79 0.82 0.91 1.01 0.90 0.92 0.91 0.92 0.94 1.01 1.25 1.71 1.70 1.84 1.78 1.88 1.99 2.09 2.49 2.97 2.98 2.18 2.43 2.72 3.14 3.40 3.45 3.51 3.56 3.87 3.96 3.86 4.17
1.46 1.53 1.74 1.87 2.21 2.34 2.07 2.19 1.99 1.75 1.38 1.25 1.10 1.13 1.04 0.98 1.06 1.25 1.62 1.09 1.25 1.28 1.43 1.41 1.38 1.17 1.09 1.47 2.26 2.54 2.78 3.26 3.46 3.15 3.04 3.23 3.30 3.22 3.44 3.70 3.55 3.93 3.91
1.02 1.15 1.22 1.72 1.93 1.91 2.32 2.54 2.07 1.94 1.66 1.70 1.77 1.54 1.45 1.23 1.03 1.14 1.58 1.66 1.43 1.21 1.66 1.60 1.38 1.16 1.21 1.13 1.30 1.61 1.84 2.18 2.36 2.72 2.73 2.54 2.19 2.12 2.61 3.82 3.35 3.01 2.81
0.65 0.62 0.62 0.97 1.30 1.20 1.33 1.31 1.30 1.30 1.27 1.34 1.48 1.92 1.39 0.95 0.94 1.25 1.65 1.53 1.40 1.39 1.11 0.94 0.90 0.83 0.87 0.95 1.13 1.16 1.21 1.18 1.20 1.32 1.53 1.82 1.94 1.88 1.78 2.06 2.32 2.23 2.05
0.42 0.28 0.28 0.36 0.65 0.72 0.89 0.95 0.61 0.69 0.92 1.28 1.47 1.60 1.13 1.22 1.20 1.01 1.49 1.86 1.83 1.59 1.06 0.89 0.94 0.92 0.79 0.72 0.70 0.68 0.62 0.56 0.53 0.58 0.60 0.70 0.69 0.65 0.64 0.74 0.93 1.01 0.89
0.24 0.31 0.29 0.32 0.28 0.27 0.31 0.43 0.66 0.99 1.16 0.98 0.90 0.84 0.72 0.78 0.74 0.86 1.10 1.32 1.45 1.21 1.02 0.81 0.51 0.37 0.32 0.31 0.31 0.29 0.36 0.44 0.47 0.48 0.49 0.46 0.39 0.31 0.25 0.25 0.29 0.37 0.44
0.20 0.16 0.19 0.23 0.16 0.17 0.27 0.33 0.51 0.59 0.60 0.48 0.45 0.39 0.39 0.42 0.42 0.56 0.58 0.44 0.46 0.55 0.42 0.30 0.22 0.18 0.19 0.16 0.16 0.14 0.14 0.15 0.16 0.15 0.22 0.29 0.24 0.20 0.16 0.18 0.20 0.22 0.24
0.22 0.28 0.35 0.39 0.37 0.38 0.40 0.29 0.26 0.28 0.33 0.34 0.37 0.37 0.36 0.33 0.20 0.17 0.25 0.28 0.30 0.29 0.20 0.16 0.12 0.08 0.08 0.10 0.12 0.12 0.17 0.18 0.16 0.15 0.19 0.20 0.14 0.15 0.21 0.26 0.25 0.28 0.35
0.49 0.52 0.73 0.70 0.65 0.69 0.59 0.52 0.45 0.50 0.46 0.45 0.48 0.44 0.55 0.51 0.27 0.18 0.16 0.18 0.15 0.13 0.09 0.09 0.13 0.15 0.10 0.08 0.13 0.16 0.26 0.19 0.16 0.13 0.12 0.11 0.13 0.18 0.28 0.35 0.41 0.46 0.47